DECAYED

DMSP 5D-2 F13 DEB, 40520 (Decayed)

Orbit data source: Space-Track

DMSP 5D-2 F13 DEB, 40520 was space debris in SSO originally from a launch on Fri, 24 Mar 1995 UTC launched from the Air Force Western Test Range (AFWTR). Debris objects in space refer to the collection of defunct objects orbiting the Earth. Examples of debris include non-operational satellites, rocket bodies, and fragments generated from explosions, collisions, or faulty payload assembly.

Not visible in the next 10 days
Identifier
40520, 1995-015DG
Orbit
Decayed
Country
Flag of USUS
Related business
Manufacturer
Unknown
Mission
Decayed spacecraft
Bus & Motor
Unknown
Mass
Unknown
Launch date (UTC)
1995-03-24 (31 years ago)
Launch vehicle
Unknown
Launch site
Air Force Western Test Range (AFWTR)
Object type
Payload
Rocket body
Debris
Shape & HBR
Unknown shape, 0.1 m
Radar Cross Section
Medium (>0.1 m² and <1 m²)

Expand to show TLE details & history
Last TLE update: 9 months ago

TLE from 9 months ago
0 DMSP 5D-2 F13 DEB
1 40520U 95015DG  25264.05925825  .04374225  00000-0  27743-1 0  9997
2 40520  98.6385  20.6262 0022498 301.4532  58.4528 15.72416590550724
Epoch: 2025-09-21T01:25Z
TLE epoch observation values (Epoch: 2025-09-21T01:25:19.912Z)
Latitude
-0.00006°
Longitude
-0.88999°
Altitude
347.216 km
Speed
7.705 km/s
True Right ascension
01h 22m 30s
True Declination
0° 00' 00"
Sunlit
Object was in full shadow at epoch
Visualization orbit readout
Latitude
Unknown
Longitude
Unknown
Altitude
Unknown
Speed
Unknown
Apparent Right ascension
Unknown
Apparent Declination
Unknown
Sunlit
N/A
Visualization observer readout
Local Sidereal Time
23:19:43
Azimuth
Unknown
Elevation
Unknown
Doppler factor
Unknown
Orbital elements
Apogee altitude
364.082 km
Perigee altitude
333.813 km
Semi-major axis
6,727.084 km
Eccentricity
0.00225
Inclination
98.6385°
RAAN
20.6262°
Arg. of periapsis
301.4532°
True anomaly
58.67283°
Mean anomaly
58.4528°
Eccentric anomaly
58.56278°
Mean motion
3.93371 °/min
Orbital period
91.52 mins
BSTAR
0.027743
Loading maneuver chart data...
Computing Atmospheric mass density...

Documentation

Showing up to 5 results
|